Bookmark and Share
Track history (hours):
 

Wilson Norfolk

Last reported at 2014-Apr-22 21:33 UTC. Time now 2014-Apr-24 06:30 UTC.
Position N 56°03' E 016°44'.

Length 123 m; draft 7.6 m.

Type: Cargo ship. MMSI: 248678000.

NotesDate/timePositionNaut miles runAvg speedWind from/ knotsBaromVisibWave heightAir tempDewpointWater temp
2014-Apr-22 21:33N 56°03' E 016°44'1111.2
2014-Apr-22 20:33N 55°57' E 016°27'1111.3
2014-Apr-22 19:32N 55°52' E 016°09'1211.1
2014-Apr-22 18:25N 55°45' E 015°50'1011.0
2014-Apr-22 17:33N 55°41' E 015°35'1110.9
2014-Apr-22 16:33N 55°36' E 015°18'1111.1
2014-Apr-22 15:33N 55°30' E 015°01'1111.1
2014-Apr-22 14:33N 55°25' E 014°44'1111.0
2014-Apr-22 13:33N 55°17' E 014°30'1010.4
2014-Apr-22 12:33N 55°11' E 014°16'1211.9
2014-Apr-22 11:33N 55°10' E 013°55'1110.5
2014-Apr-22 10:29N 55°12' E 013°35'1011.3
2014-Apr-22 09:33N 55°13' E 013°17'1111.3
2014-Apr-22 08:33N 55°14' E 012°57'1111.1
2014-Apr-22 07:33N 55°18' E 012°39'1010.0
2014-Apr-22 06:33N 55°28' E 012°41'10 9.5
2014-Apr-22 05:33N 55°38' E 012°42'1110.7
2014-Apr-22 04:33N 55°48' E 012°42'1110.9
2014-Apr-22 03:33N 55°59' E 012°41'1010.1
2014-Apr-22 02:33N 56°07' E 012°30'1211.9
2014-Apr-22 01:33N 56°14' E 012°12'1111.3
2014-Apr-22 00:33N 56°23' E 012°00'1212.0
2014-Apr-21 23:32N 56°35' E 011°56'1312.2
2014-Apr-21 22:30N 56°47' E 011°50'1212.4
2014-Apr-21 21:33N 56°58' E 011°43'1212.1
2014-Apr-21 20:33N 57°10' E 011°35'1211.9
2014-Apr-21 19:33N 57°21' E 011°27'1111.4
2014-Apr-21 18:33N 57°31' E 011°17'1111.2
2014-Apr-21 17:33N 57°39' E 011°02'1111.3
2014-Apr-21 16:33N 57°46' E 010°46'1010.2
2014-Apr-21 15:33N 57°47' E 010°27'1110.7
2014-Apr-21 14:33N 57°46' E 010°07'4610.7
2014-Apr-21 10:15N 57°43' E 008°40'1010.8
2014-Apr-21 09:21N 57°42' E 008°22'810.6
2014-Apr-21 08:33N 57°42' E 008°06'1410.2
2014-Apr-21 07:13N 57°42' E 007°41'5810.3
2014-Apr-21 01:33N 58°01' E 005°58'1110.9
2014-Apr-21 00:33N 58°08' E 005°42'1211.5
2014-Apr-20 23:31N 58°15' E 005°25'1310.6
2014-Apr-20 22:18N 58°28' E 005°17'911.6
2014-Apr-20 21:30N 58°37' E 005°19'1011.0
2014-Apr-20 20:33N 58°47' E 005°24'1110.9
2014-Apr-20 19:33N 58°57' E 005°33'8 7.6
2014-Apr-20 18:33N 59°02' E 005°44'6 6.2
2014-Apr-20 17:31N 59°05' E 005°54'0 0.0
2014-Apr-20 16:31N 59°05' E 005°54'0 0.0
2014-Apr-20 15:31N 59°05' E 005°54'0 0.0
2014-Apr-20 14:31N 59°05' E 005°54'0 0.0
2014-Apr-20 13:28N 59°05' E 005°54'0 0.0
2014-Apr-20 12:31N 59°05' E 005°54'0 0.0
2014-Apr-20 11:31N 59°05' E 005°54'0 0.0
2014-Apr-20 10:31N 59°05' E 005°54'0 0.0
2014-Apr-20 09:31N 59°05' E 005°54'0 0.0
2014-Apr-20 08:31N 59°05' E 005°54'0 0.4
2014-Apr-20 07:33N 59°05' E 005°54'9 9.1
2014-Apr-20 06:33N 59°02' E 005°37'1110.8
2014-Apr-20 05:33N 58°52' E 005°31'7 7.2
2014-Apr-20 04:33N 58°51' E 005°17'4 3.9
2014-Apr-20 03:33N 58°51' E 005°10'4 4.2
2014-Apr-20 02:33N 58°51' E 005°02'8 7.5
2014-Apr-20 01:32N 58°51' E 004°47'22610.3
2014-Apr-19 03:33N 58°44' W 002°30'1110.6
2014-Apr-19 02:33N 58°43' W 002°50'10 9.7
2014-Apr-19 01:33N 58°43' W 003°09'1312.9
2014-Apr-19 00:33N 58°42' W 003°34'1313.0
2014-Apr-18 23:33N 58°41' W 003°59'1313.2
2014-Apr-18 22:33N 58°40' W 004°24'1413.4
2014-Apr-18 21:32N 58°39' W 004°51'2512.8
2014-Apr-18 19:33N 58°23' W 005°27'1812.0
2014-Apr-18 18:05N 58°08' W 005°45'612.0
2014-Apr-18 17:33N 58°02' W 005°51'12910.7
2014-Apr-18 05:34N 55°58' W 006°54'1111.0
2014-Apr-18 04:33N 55°49' W 006°44'1212.1
2014-Apr-18 03:33N 55°38' W 006°33'1414.3
2014-Apr-18 02:33N 55°28' W 006°16'1312.7
2014-Apr-18 01:33N 55°20' W 005°58'1212.0
2014-Apr-18 00:33N 55°10' W 005°48'1111.0
2014-Apr-17 23:33N 54°60' W 005°40'10 9.9
2014-Apr-17 22:33N 54°51' W 005°34'9 9.2
2014-Apr-17 21:33N 54°42' W 005°27'9 9.1
2014-Apr-17 20:33N 54°33' W 005°23'10 9.8
2014-Apr-17 19:33N 54°24' W 005°21'1311.3
2014-Apr-17 18:26N 54°14' W 005°35'1011.6
2014-Apr-17 17:33N 54°07' W 005°48'1111.1
2014-Apr-17 16:33N 54°00' W 006°03'3 3.0
2014-Apr-17 15:24N 54°02' W 006°08'0 0.0
2014-Apr-17 14:30N 54°02' W 006°08'0 0.0
2014-Apr-17 12:30N 54°02' W 006°08'0 0.0
2014-Apr-17 11:21N 54°02' W 006°08'0 0.0
2014-Apr-17 07:09N 54°02' W 006°08'0 0.0
2014-Apr-17 05:27N 54°02' W 006°08'0 0.0
2014-Apr-17 04:30N 54°02' W 006°08'0 0.0
2014-Apr-17 03:27N 54°02' W 006°08'0 0.0
2014-Apr-17 02:12N 54°02' W 006°08'0 0.0
2014-Apr-17 01:24N 54°02' W 006°08'0 0.0
2014-Apr-17 00:30N 54°02' W 006°08'0 0.0
2014-Apr-16 23:15N 54°02' W 006°08'0 0.0
2014-Apr-16 21:18N 54°02' W 006°08'0 0.0
2014-Apr-16 20:09N 54°02' W 006°08'0 0.0
2014-Apr-16 19:30N 54°02' W 006°08'0 0.0
2014-Apr-16 18:30N 54°02' W 006°08'0 0.0
2014-Apr-16 16:03N 54°02' W 006°08'0 0.0
2014-Apr-16 15:24N 54°02' W 006°08'0 0.0
2014-Apr-16 14:12N 54°02' W 006°08'0 0.0
2014-Apr-16 13:15N 54°02' W 006°08'0 0.0
2014-Apr-16 12:30N 54°02' W 006°08'0 0.0
2014-Apr-16 11:18N 54°02' W 006°08'0 0.0
2014-Apr-16 09:18N 54°02' W 006°08'0 0.0
2014-Apr-16 07:30N 54°02' W 006°08'0 0.0
2014-Apr-16 06:24N 54°02' W 006°08'0 0.0
2014-Apr-16 04:06N 54°02' W 006°08'0 0.0
2014-Apr-16 02:03N 54°02' W 006°08'0 0.0
2014-Apr-16 01:09N 54°02' W 006°08'0 0.0
2014-Apr-15 21:24N 54°02' W 006°08'0 0.0
2014-Apr-15 20:06N 54°02' W 006°08'0 0.0
2014-Apr-15 18:30N 54°02' W 006°08'0 0.0
2014-Apr-15 17:21N 54°02' W 006°08'0 0.0
2014-Apr-15 16:33N 54°02' W 006°08'0 0.0
2014-Apr-15 15:30N 54°02' W 006°08'0 0.0
2014-Apr-15 14:30N 54°02' W 006°08'0 0.0
2014-Apr-15 12:30N 54°02' W 006°08'0 0.0
2014-Apr-15 11:30N 54°02' W 006°08'0 0.0
2014-Apr-15 06:30N 54°02' W 006°08'0 0.0
2014-Apr-15 05:33N 54°02' W 006°08'0 0.0
2014-Apr-15 03:30N 54°02' W 006°08'0 0.0
2014-Apr-15 02:30N 54°02' W 006°08'0 0.0
2014-Apr-14 21:33N 54°02' W 006°08'0 0.0
2014-Apr-14 20:33N 54°02' W 006°08'0 0.0
2014-Apr-14 19:30N 54°02' W 006°08'0 0.0
2014-Apr-14 18:30N 54°02' W 006°08'0 0.0
2014-Apr-14 17:33N 54°02' W 006°08'0 0.0
2014-Apr-14 13:30N 54°02' W 006°08'2 0.5
2014-Apr-14 08:33N 54°01' W 006°04'3 0.3
2014-Apr-13 22:32N 54°00' W 005°60'0 0.0
2014-Apr-13 21:32N 54°00' W 005°60'0 0.0
2014-Apr-13 20:20N 54°00' W 005°60'0 0.0
2014-Apr-13 19:05N 54°00' W 005°60'0 0.0
2014-Apr-13 18:29N 54°00' W 005°60'0 0.0
2014-Apr-13 17:17N 54°00' W 005°60'0 0.0
2014-Apr-13 16:32N 54°00' W 005°60'0 0.0
2014-Apr-13 15:32N 54°00' W 005°60'8 8.1
2014-Apr-13 14:32N 54°06' W 005°50'2210.8
2014-Apr-13 12:31N 54°21' W 005°24'9 9.9
2014-Apr-13 11:33N 54°31' W 005°23'1110.6
2014-Apr-13 10:34N 54°41' W 005°27'1211.9
2014-Apr-13 09:33N 54°52' W 005°37'1313.0
2014-Apr-13 08:34N 55°03' W 005°48'1514.6
2014-Apr-13 07:33N 55°15' W 006°01'1413.9
2014-Apr-13 06:33N 55°25' W 006°19'1312.8
2014-Apr-13 05:33N 55°36' W 006°31'1312.5
2014-Apr-13 04:33N 55°47' W 006°43'1110.9
2014-Apr-13 03:33N 55°56' W 006°52'  

Dump ship's entire track history

sailing weather and tide predictions

Wilson Norfolk — 9HA2466 — position and weather